Torna al catalogo

STARLINK-2414

AttivoComunicazioniVLEO
NORAD 48095·PAYLOAD·🇺🇸 United States

Lanciato Apr 7, 2021 da Cape Canaveral Space Force Station

Loading…

Prossimi Passaggi (prossime 24 ore)

TLE

AggiornatoSource: CelesTrak SupGP

Epoca: Sep 14, 2026, 20:10 UTC

1 48095C 21027D   26257.84076389  .00008364  00000+0  26893-3 0  2573
2 48095  53.1585   5.1916 0001296  81.6194 106.4912 15.31700363    17

Traccia STARLINK-2414 in tempo reale con AllMySat

Download on the App Store